Location: Newark
(22.2167°N, 96.1167°E)
Time: 06:26:59
(UTC+00:00)

N. Korean satellite - Visible Passes

Search period start: 06 December 2019 00:00
Search period end: 16 December 2019 00:00
Orbit: 456 x 506 km, 97.2° (Epoch: 05 December)

Date Brightness Start Highest point End Pass type
(mag) Time Alt. Az. Time Alt. Az. Time Alt. Az.
06 Dec 9.6 22:35:13 10° NE 22:37:38 18° E 22:40:01 10° SE visible
08 Dec 9.9 11:41:49 10° SW 11:44:11 16° W 11:46:33 10° WNW visible
08 Dec 6.4 23:16:40 10° N 23:20:09 89° NW 23:23:35 10° SSW visible
09 Dec 8.4 11:15:16 10° SSW 11:18:43 38° W 11:22:12 10° NNW visible
09 Dec 8.4 22:51:35 10° NNE 22:54:43 32° E 22:57:49 10° SSE visible
10 Dec 9.9 22:27:31 10° ENE 22:29:13 13° E 22:30:54 10° SE visible
11 Dec 6.8 23:33:50 10° N 23:37:08 43° WNW 23:40:24 10° SSW visible
12 Dec 9.6 11:32:57 10° SSW 11:35:48 21° W 11:38:40 10° NW visible
12 Dec 6.9 23:08:19 10° NNE 23:11:45 64° E 23:15:08 10° S visible
13 Dec 9.0 22:43:28 10° NE 22:46:17 24° E 22:49:06 10° SSE visible
15 Dec 10.2 11:51:30 10° WSW 11:52:54 12° W 11:54:18 10° WNW visible
15 Dec 6.4 23:25:21 10° N 23:28:44 61° WNW 23:32:06 10° SSW visible
